OEFPT EDDH-ZZZZ

Flight info

Callsign OEFPT
Flight time N/A
Altitude 5000
Route CEL1G/09R CEL Q282 DIRBO T902 RARUP RARUP6A/05
Aircraft DA42/L-SDFGRY/C

Departure

Time 2026-05-06 12:18
Airport Hamburg Helmut Schmidt Airport (EDDH)

Arrival

Time N/A
Airport ZZZZ
Time Latitude Longitude Altitude Speed Heading
2026-05-06 12:12 53.62685 9.98677 45 ft 8 kts 289°
2026-05-06 12:12 53.62714 9.98607 45 ft 8 kts 227°
2026-05-06 12:12 53.62691 9.98521 45 ft 11 kts 289°
2026-05-06 12:12 53.62736 9.98471 45 ft 0 kts
2026-05-06 12:16 53.62760 9.98474 45 ft 10 kts
2026-05-06 12:16 53.62874 9.98527 44 ft 22 kts 25°
2026-05-06 12:16 53.62927 9.98592 43 ft 0 kts 48°
2026-05-06 12:17 53.63013 9.98773 43 ft 51 kts 50°
2026-05-06 12:17 53.63334 9.99387 198 ft 75 kts 47°
2026-05-06 12:17 53.63712 10.00004 619 ft 74 kts 38°
2026-05-06 12:18 53.64241 9.99784 883 ft 92 kts 334°
2026-05-06 12:18 53.64764 9.99136 1225 ft 96 kts 327°
2026-05-06 12:18 53.65287 9.98405 1438 ft 103 kts 329°
2026-05-06 12:18 53.65912 9.98148 1646 ft 89 kts 17°
2026-05-06 12:19 53.66586 9.98350 1613 ft 107 kts 15°
2026-05-06 12:19 53.67346 9.98580 1618 ft 112 kts 17°
2026-05-06 12:19 53.68122 9.98890 1615 ft 117 kts 19°
2026-05-06 12:19 53.68906 9.99269 1605 ft 121 kts 22°
2026-05-06 12:20 53.69721 9.99759 1583 ft 124 kts 25°
2026-05-06 12:20 53.70532 10.00264 1588 ft 124 kts 22°
2026-05-06 12:20 53.71356 10.00727 1601 ft 125 kts 22°
2026-05-06 12:20 53.72191 10.01189 1648 ft 127 kts 21°
2026-05-06 12:21 53.73035 10.01621 1660 ft 131 kts 17°
2026-05-06 12:21 53.73958 10.01761 1675 ft 137 kts
2026-05-06 12:21 53.74912 10.01832 1714 ft 136 kts
2026-05-06 12:21 53.75869 10.01904 1726 ft 136 kts
2026-05-06 12:22 53.76806 10.01969 1740 ft 136 kts
2026-05-06 12:22 53.77758 10.02064 1711 ft 135 kts
2026-05-06 12:22 53.78690 10.02179 1657 ft 133 kts
2026-05-06 12:22 53.79611 10.02257 1643 ft 133 kts
2026-05-06 12:23 53.80536 10.02273 1700 ft 129 kts
2026-05-06 12:23 53.81421 10.02445 1837 ft 129 kts 13°
2026-05-06 12:23 53.82332 10.02699 1902 ft 138 kts 17°
2026-05-06 12:23 53.83230 10.03036 2117 ft 132 kts 12°
2026-05-06 12:24 53.84103 10.03260 2512 ft 121 kts 17°
2026-05-06 12:24 53.84864 10.03866 2670 ft 117 kts 35°
2026-05-06 12:24 53.85572 10.04621 2630 ft 121 kts 36°
2026-05-06 12:24 53.86298 10.05289 2578 ft 116 kts 30°
2026-05-06 12:25 53.87039 10.05828 2497 ft 115 kts 25°
2026-05-06 12:25 53.87826 10.05748 2493 ft 120 kts 341°
2026-05-06 12:25 53.88532 10.04990 2452 ft 122 kts 334°
2026-05-06 12:25 53.89241 10.04190 2353 ft 122 kts 334°
2026-05-06 12:26 53.89939 10.03407 2298 ft 117 kts 334°
2026-05-06 12:26 53.90596 10.02659 2296 ft 111 kts 334°
2026-05-06 12:26 53.91215 10.01934 2289 ft 107 kts 334°
2026-05-06 12:26 53.91818 10.01215 2286 ft 105 kts 334°
2026-05-06 12:27 53.92414 10.00504 2298 ft 109 kts 334°
2026-05-06 12:27 53.93081 9.99731 2311 ft 122 kts 334°
2026-05-06 12:27 53.93792 9.98917 2419 ft 122 kts 334°
2026-05-06 12:27 53.94501 9.98096 2515 ft 127 kts 334°
2026-05-06 12:28 53.95296 9.97213 2334 ft 145 kts 334°
2026-05-06 12:28 53.96176 9.96262 2129 ft 155 kts 334°
2026-05-06 12:28 53.97097 9.95280 2007 ft 154 kts 334°
2026-05-06 12:28 53.97976 9.94330 2015 ft 151 kts 334°
2026-05-06 12:29 53.98856 9.93371 2005 ft 149 kts 334°
2026-05-06 12:29 53.99717 9.92419 2009 ft 147 kts 334°
2026-05-06 12:29 54.00579 9.91473 2000 ft 147 kts 335°
2026-05-06 12:29 54.01521 9.91065 2014 ft 138 kts
2026-05-06 12:30 54.02479 9.91000 2010 ft 137 kts
2026-05-06 12:30 54.03436 9.90958 2001 ft 138 kts
2026-05-06 12:30 54.04393 9.90902 2011 ft 138 kts
2026-05-06 12:30 54.05348 9.90849 2014 ft 138 kts
2026-05-06 12:31 54.06313 9.90784 2012 ft 139 kts
2026-05-06 12:31 54.07268 9.90747 2004 ft 136 kts
2026-05-06 12:31 54.08211 9.90713 2006 ft 135 kts
2026-05-06 12:31 54.08833 9.90695 2003 ft 135 kts
2026-05-06 12:32 54.09766 9.90655 2014 ft 135 kts
2026-05-06 12:32 54.10717 9.90564 2004 ft 138 kts 359°
2026-05-06 12:32 54.11976 9.90130 2001 ft 139 kts 354°
2026-05-06 12:32 54.12926 9.89765 2012 ft 142 kts 354°
2026-05-06 12:33 54.13563 9.89532 2001 ft 140 kts 354°
2026-05-06 12:33 54.14515 9.89184 2024 ft 141 kts 354°
2026-05-06 12:33 54.15477 9.88773 2021 ft 145 kts 347°
2026-05-06 12:33 54.16420 9.88128 2016 ft 146 kts 344°
2026-05-06 12:34 54.17349 9.87457 2014 ft 144 kts 343°
2026-05-06 12:34 54.18274 9.86794 2016 ft 144 kts 343°
2026-05-06 12:34 54.19197 9.86114 2012 ft 145 kts 338°
2026-05-06 12:34 54.20080 9.85218 2016 ft 148 kts 334°
2026-05-06 12:35 54.20950 9.84274 2030 ft 149 kts 335°
2026-05-06 12:35 54.21812 9.83300 2016 ft 148 kts 333°
2026-05-06 12:35 54.22670 9.82321 2015 ft 150 kts 335°
2026-05-06 12:35 54.23523 9.81343 2021 ft 150 kts 333°
2026-05-06 12:36 54.24374 9.80360 2021 ft 146 kts 333°
2026-05-06 12:36 54.25234 9.79403 2032 ft 148 kts 333°
2026-05-06 12:36 54.26101 9.78460 2022 ft 147 kts 334°
2026-05-06 12:36 54.26960 9.77519 2022 ft 146 kts 334°
2026-05-06 12:37 54.27810 9.76593 2022 ft 144 kts 334°
2026-05-06 12:37 54.28653 9.75670 2025 ft 143 kts 333°
2026-05-06 12:37 54.29493 9.74746 2027 ft 143 kts 334°
2026-05-06 12:37 54.30329 9.73808 2027 ft 143 kts 334°
2026-05-06 12:38 54.31168 9.72862 2027 ft 145 kts 334°
2026-05-06 12:38 54.32004 9.71915 2031 ft 147 kts 334°
2026-05-06 12:38 54.32869 9.70931 2027 ft 147 kts 334°
2026-05-06 12:38 54.33722 9.69985 2023 ft 148 kts 333°
2026-05-06 12:39 54.34593 9.69035 2027 ft 149 kts 334°
2026-05-06 12:39 54.35466 9.68079 2026 ft 149 kts 333°
2026-05-06 12:39 54.36342 9.67144 2024 ft 148 kts 334°
2026-05-06 12:39 54.37230 9.66188 2014 ft 154 kts 333°
2026-05-06 12:40 54.38141 9.65192 2030 ft 154 kts 334°
2026-05-06 12:40 54.39044 9.64177 2018 ft 154 kts 333°
2026-05-06 12:40 54.39948 9.63222 2026 ft 151 kts 334°
2026-05-06 12:40 54.40833 9.62281 2029 ft 149 kts 334°
2026-05-06 12:41 54.41707 9.61330 2022 ft 149 kts 334°
2026-05-06 12:41 54.42576 9.60383 2029 ft 148 kts 334°